Flag for Germany Past Weather in Biberach an der Riss, Baden-Württemberg, Germany — Yesterday and Last 2 Weeks

Now
77 °F

Passing clouds.


Feels Like: 79 °F
Forecast: 58 / 71 °F
Wind: 5 mph from West

Location: Laupheim Airport

Current Time: Jun 29, 2016 at 8:13:18 PM

Latest Report: Jun 29, 2016 at 7:20 PM


Visibility: N/A

Pressure: 29.95 "Hg (28.17 "Hg at 536m altitude)

Humidity: 47%

Dew Point: 55 °F

Location of Biberach an der RissLocation

Past Weather in Biberach an der Riss — Graph

°F

Biberach an der Riss Temperature Yesterday

Maximum temperature yesterday: 75 °F (at 3:20 PM)
Minimum temperature yesterday: 59 °F (at 4:20 AM)
Average temperature yesterday: 67 °F

High & Low Weather Summary for the Past Weeks

 TemperatureHumidityPressure
High90 °F (Jun 23, 4:20 PM)100% (Jun 20, 2:20 AM)30.30 "Hg (Jun 20, 2:20 AM)
Low46 °F (Jun 20, 5:20 AM)31% (Jun 23, 4:20 PM)29.59 "Hg (Jun 14, 6:00 PM)
Average63 °F73%30.04 "Hg
* Reported Jun 14 6:00 PM — Jun 29 6:20 PM, Biberach an der Riss, Weather by CustomWeather, © 2016

Note: Actual official high and low records may vary slightly from our data, if they occured in-between our weather recording intervals... More about our weather records

Advertising

Biberach an der Riss Weather History for the Previous 24 Hours

Scroll right to see more
 ConditionsComfort  
Time TempWeatherWind HumidityBarometerVisibility
6:20 PM
Wed, Jun 29
79 °FScattered clouds.6 mph45%29.95 "HgN/A
5:20 PM77 °FBroken clouds.7 mph47%29.98 "HgN/A
4:20 PM77 °FBroken clouds.7 mph47%29.98 "HgN/A
3:20 PM75 °FBroken clouds.5 mph50%30.01 "HgN/A
2:20 PM75 °FScattered clouds.10 mph50%30.01 "HgN/A
1:20 PM72 °FScattered clouds.8 mph57%30.04 "HgN/A
12:20 PM70 °FScattered clouds.9 mph60%30.04 "HgN/A
11:20 AM70 °FBroken clouds.10 mph64%30.04 "HgN/A
10:20 AM70 °FPartly sunny.14 mph60%30.04 "HgN/A
9:20 AM68 °FScattered clouds.12 mph64%30.04 "HgN/A
8:20 AM66 °FScattered clouds.7 mph68%30.04 "HgN/A
7:20 AM64 °FBroken clouds.8 mph73%30.04 "HgN/A
6:20 AM63 °FPartly cloudy.6 mph77%30.01 "HgN/A
5:20 AM61 °FPassing clouds.6 mph83%30.01 "HgN/A
4:20 AM63 °FPassing clouds.3 mph77%30.01 "HgN/A
3:20 AM61 °FPartly cloudy.5 mph88%30.01 "HgN/A
2:20 AM61 °FPassing clouds.3 mph88%30.01 "HgN/A
1:20 AM61 °FPassing clouds.1 mph88%30.01 "HgN/A
12:20 AM64 °FPassing clouds.1 mph78%30.01 "HgN/A
11:20 PM
Tue, Jun 28
64 °FPassing clouds.2 mph78%30.01 "HgN/A
10:20 PM66 °FScattered clouds.3 mph73%30.01 "HgN/A
9:20 PM70 °FPassing clouds.2 mph57%30.01 "HgN/A
8:20 PM73 °FPassing clouds.3 mph47%30.01 "HgN/A
Weather by CustomWeather, © 2016

See weather overviewHow to use our weather pages